Time,TemperatureF,DewpointF,PressureIn,WindDirection,WindDirectionDegrees,WindSpeedMPH,WindSpeedGustMPH,Humidity,HourlyPrecipIn,Conditions,Clouds,dailyrainin,SoftwareType,DateUTC
2013-03-10 00:06:00,28.4,24.0,30.29,East,82,0.0,1.0,83,0.00,,,0.00,weatherlink.com 1.10,2013-03-10 05:06:00,
2013-03-10 00:22:00,27.9,23.0,30.30,East,82,0.0,0.0,82,0.00,,,0.00,weatherlink.com 1.10,2013-03-10 05:22:00,
2013-03-10 00:38:00,27.8,23.0,30.30,East,82,0.0,1.0,82,0.00,,,0.00,weatherlink.com 1.10,2013-03-10 05:38:00,
2013-03-10 00:53:00,27.4,23.0,30.30,East,82,0.0,0.0,82,0.00,,,0.00,weatherlink.com 1.10,2013-03-10 05:53:00,
2013-03-10 01:09:00,26.6,22.0,30.31,East,82,0.0,0.0,83,0.00,,,0.00,weatherlink.com 1.10,2013-03-10 06:09:00,
2013-03-10 01:25:00,26.5,22.0,30.31,East,82,0.0,1.0,84,0.00,,,0.00,weatherlink.com 1.10,2013-03-10 06:25:00,
2013-03-10 01:41:00,26.2,22.0,30.30,East,82,0.0,0.0,84,0.00,,,0.00,weatherlink.com 1.10,2013-03-10 06:41:00,
2013-03-10 01:57:00,25.8,22.0,30.30,East,94,0.0,1.0,85,0.00,,,0.00,weatherlink.com 1.10,2013-03-10 06:57:00,
2013-03-10 03:12:00,25.5,22.0,30.29,East,95,0.0,0.0,85,0.00,,,0.00,weatherlink.com 1.10,2013-03-10 07:12:00,
2013-03-10 03:28:00,25.2,21.0,30.29,East,94,0.0,1.0,85,0.00,,,0.00,weatherlink.com 1.10,2013-03-10 07:28:00,
2013-03-10 03:44:00,24.6,21.0,30.28,East,94,0.0,0.0,86,0.00,,,0.00,weatherlink.com 1.10,2013-03-10 07:44:00,
2013-03-10 04:00:00,24.7,21.0,30.28,East,94,0.0,0.0,86,0.00,,,0.00,weatherlink.com 1.10,2013-03-10 08:00:00,
2013-03-10 04:16:00,24.5,21.0,30.29,East,95,0.0,1.0,87,0.00,,,0.00,weatherlink.com 1.10,2013-03-10 08:16:00,
2013-03-10 04:32:00,24.2,21.0,30.29,East,94,0.0,1.0,87,0.00,,,0.00,weatherlink.com 1.10,2013-03-10 08:32:00,
2013-03-10 04:47:00,24.2,21.0,30.29,East,94,0.0,1.0,86,0.00,,,0.00,weatherlink.com 1.10,2013-03-10 08:47:00,
2013-03-10 05:03:00,24.5,21.0,30.30,East,95,0.0,1.0,86,0.00,,,0.00,weatherlink.com 1.10,2013-03-10 09:03:00,
2013-03-10 05:19:00,24.2,21.0,30.30,East,95,0.0,1.0,86,0.00,,,0.00,weatherlink.com 1.10,2013-03-10 09:19:00,
2013-03-10 05:35:00,23.8,20.0,30.30,East,95,0.0,0.0,86,0.00,,,0.00,weatherlink.com 1.10,2013-03-10 09:35:00,
2013-03-10 05:50:00,23.4,20.0,30.31,East,95,0.0,0.0,87,0.00,,,0.00,weatherlink.com 1.10,2013-03-10 09:50:00,
2013-03-10 06:06:00,23.1,20.0,30.31,East,95,0.0,0.0,88,0.00,,,0.00,weatherlink.com 1.10,2013-03-10 10:06:00,
2013-03-10 06:22:00,23.0,20.0,30.32,East,94,0.0,0.0,88,0.00,,,0.00,weatherlink.com 1.10,2013-03-10 10:22:00,
2013-03-10 06:38:00,22.9,20.0,30.31,East,95,0.0,1.0,88,0.00,,,0.00,weatherlink.com 1.10,2013-03-10 10:38:00,
2013-03-10 06:55:00,22.6,20.0,30.31,East,94,0.0,0.0,88,0.00,,,0.00,weatherlink.com 1.10,2013-03-10 10:55:00,
2013-03-10 07:10:00,22.4,20.0,30.32,East,95,0.0,0.0,89,0.00,,,0.00,weatherlink.com 1.10,2013-03-10 11:10:00,
2013-03-10 07:26:00,22.5,20.0,30.33,East,94,0.0,0.0,89,0.00,,,0.00,weatherlink.com 1.10,2013-03-10 11:26:00,
2013-03-10 07:42:00,22.5,20.0,30.33,East,94,0.0,0.0,89,0.00,,,0.00,weatherlink.com 1.10,2013-03-10 11:42:00,
2013-03-10 07:58:00,22.7,20.0,30.33,East,94,0.0,1.0,89,0.00,,,0.00,weatherlink.com 1.10,2013-03-10 11:58:00,
2013-03-10 08:14:00,25.4,23.0,30.33,East,94,0.0,1.0,89,0.00,,,0.00,weatherlink.com 1.10,2013-03-10 12:14:00,
2013-03-10 08:30:00,29.8,25.0,30.32,East,94,0.0,0.0,82,0.00,,,0.00,weatherlink.com 1.10,2013-03-10 12:30:00,
2013-03-10 08:45:00,29.1,24.0,30.32,WNW,286,0.0,1.0,80,0.00,,,0.00,weatherlink.com 1.10,2013-03-10 12:45:00,
2013-03-10 09:01:00,29.5,24.0,30.31,WNW,300,0.0,1.0,81,0.00,,,0.00,weatherlink.com 1.10,2013-03-10 13:01:00,
2013-03-10 09:17:00,30.7,25.0,30.32,NW,311,1.0,2.0,80,0.00,,,0.00,weatherlink.com 1.10,2013-03-10 13:17:00,
2013-03-10 09:33:00,33.3,27.0,30.31,NNW,338,0.0,1.0,77,0.00,,,0.00,weatherlink.com 1.10,2013-03-10 13:33:00,
2013-03-10 09:48:00,37.0,28.0,30.31,ESE,116,0.0,4.0,70,0.00,,,0.00,weatherlink.com 1.10,2013-03-10 13:48:00,
2013-03-10 10:04:00,41.8,28.0,30.30,ENE,65,6.0,12.0,57,0.00,,,0.00,weatherlink.com 1.10,2013-03-10 14:04:00,
2013-03-10 10:20:00,42.9,27.0,30.30,East,101,4.0,18.0,54,0.00,,,0.00,weatherlink.com 1.10,2013-03-10 14:20:00,
2013-03-10 10:36:00,43.2,27.0,30.30,ENE,73,9.0,14.0,53,0.00,,,0.00,weatherlink.com 1.10,2013-03-10 14:36:00,
2013-03-10 10:52:00,43.3,27.0,30.29,East,101,10.0,14.0,53,0.00,,,0.00,weatherlink.com 1.10,2013-03-10 14:52:00,
2013-03-10 11:08:00,44.2,28.0,30.29,ESE,116,10.0,12.0,52,0.00,,,0.00,weatherlink.com 1.10,2013-03-10 15:08:00,
2013-03-10 11:23:00,45.1,29.0,30.28,ESE,113,5.0,9.0,52,0.00,,,0.00,weatherlink.com 1.10,2013-03-10 15:23:00,
2013-03-10 11:39:00,45.9,29.0,30.29,WNW,302,1.0,12.0,52,0.00,,,0.00,weatherlink.com 1.10,2013-03-10 15:39:00,
2013-03-10 11:55:00,46.5,28.0,30.28,ESE,120,12.0,13.0,48,0.00,,,0.00,weatherlink.com 1.10,2013-03-10 15:55:00,
2013-03-10 12:11:00,46.8,28.0,30.28,SE,134,4.0,12.0,48,0.00,,,0.00,weatherlink.com 1.10,2013-03-10 16:11:00,
2013-03-10 12:27:00,47.5,28.0,30.28,West,270,4.0,10.0,47,0.00,,,0.00,weatherlink.com 1.10,2013-03-10 16:27:00,
2013-03-10 12:43:00,48.3,28.0,30.27,ENE,58,8.0,12.0,45,0.00,,,0.00,weatherlink.com 1.10,2013-03-10 16:43:00,
2013-03-10 12:59:00,49.1,29.0,30.26,East,95,2.0,12.0,45,0.00,,,0.00,weatherlink.com 1.10,2013-03-10 16:59:00,
2013-03-10 13:14:00,50.6,27.0,30.26,ESE,119,6.0,13.0,39,0.00,,,0.00,weatherlink.com 1.10,2013-03-10 17:14:00,
2013-03-10 13:30:00,51.3,26.0,30.25,East,86,4.0,16.0,37,0.00,,,0.00,weatherlink.com 1.10,2013-03-10 17:30:00,
2013-03-10 13:46:00,51.5,25.0,30.25,ESE,110,6.0,12.0,35,0.00,,,0.00,weatherlink.com 1.10,2013-03-10 17:46:00,
2013-03-10 14:02:00,51.8,24.0,30.25,ESE,122,9.0,18.0,33,0.00,,,0.00,weatherlink.com 1.10,2013-03-10 18:02:00,
2013-03-10 14:18:00,52.2,27.0,30.23,ESE,110,5.0,15.0,37,0.00,,,0.00,weatherlink.com 1.10,2013-03-10 18:18:00,
2013-03-10 14:33:00,52.9,24.0,30.23,East,96,6.0,15.0,32,0.00,,,0.00,weatherlink.com 1.10,2013-03-10 18:33:00,
2013-03-10 14:49:00,53.5,25.0,30.21,SE,132,4.0,12.0,33,0.00,,,0.00,weatherlink.com 1.10,2013-03-10 18:49:00,
2013-03-10 15:05:00,54.1,26.0,30.21,SE,127,4.0,14.0,33,0.00,,,0.00,weatherlink.com 1.10,2013-03-10 19:05:00,
2013-03-10 15:22:00,53.5,24.0,30.21,SE,127,8.0,14.0,32,0.00,,,0.00,weatherlink.com 1.10,2013-03-10 19:22:00,
2013-03-10 15:37:00,54.3,25.0,30.20,SE,141,6.0,12.0,32,0.00,,,0.00,weatherlink.com 1.10,2013-03-10 19:37:00,
2013-03-10 15:54:00,54.5,25.0,30.19,ESE,117,7.0,15.0,32,0.00,,,0.00,weatherlink.com 1.10,2013-03-10 19:54:00,
2013-03-10 16:10:00,54.6,25.0,30.19,ESE,121,4.0,19.0,31,0.00,,,0.00,weatherlink.com 1.10,2013-03-10 20:10:00,
2013-03-10 16:26:00,55.2,25.0,30.19,East,97,9.0,17.0,31,0.00,,,0.00,weatherlink.com 1.10,2013-03-10 20:26:00,
2013-03-10 16:42:00,53.9,25.0,30.18,ENE,68,3.0,17.0,32,0.00,,,0.00,weatherlink.com 1.10,2013-03-10 20:42:00,
2013-03-10 16:58:00,53.0,25.0,30.17,East,94,7.0,13.0,34,0.00,,,0.00,weatherlink.com 1.10,2013-03-10 20:58:00,
2013-03-10 17:13:00,53.2,26.0,30.18,ESE,115,4.0,11.0,35,0.00,,,0.00,weatherlink.com 1.10,2013-03-10 21:13:00,
2013-03-10 17:29:00,53.0,26.0,30.18,East,98,5.0,12.0,35,0.00,,,0.00,weatherlink.com 1.10,2013-03-10 21:29:00,
2013-03-10 17:45:00,52.3,26.0,30.17,East,98,11.0,12.0,36,0.00,,,0.00,weatherlink.com 1.10,2013-03-10 21:45:00,
2013-03-10 18:17:00,51.8,27.0,30.17,ENE,75,5.0,12.0,38,0.00,,,0.00,weatherlink.com 1.10,2013-03-10 22:17:00,
2013-03-10 18:33:00,51.5,27.0,30.17,ESE,107,7.0,13.0,39,0.00,,,0.00,weatherlink.com 1.10,2013-03-10 22:33:00,
2013-03-10 18:48:00,51.2,28.0,30.18,East,89,7.0,13.0,40,0.00,,,0.00,weatherlink.com 1.10,2013-03-10 22:48:00,
2013-03-10 19:04:00,50.9,28.0,30.18,East,97,5.0,11.0,41,0.00,,,0.00,weatherlink.com 1.10,2013-03-10 23:04:00,
2013-03-10 19:20:00,50.8,29.0,30.18,ENE,78,10.0,13.0,42,0.00,,,0.00,weatherlink.com 1.10,2013-03-10 23:20:00,
2013-03-10 19:36:00,50.7,29.0,30.16,ESE,112,4.0,11.0,43,0.00,,,0.00,weatherlink.com 1.10,2013-03-10 23:36:00,
2013-03-10 19:51:00,50.6,29.0,30.16,ESE,115,4.0,14.0,43,0.00,,,0.00,weatherlink.com 1.10,2013-03-10 23:51:00,
2013-03-10 20:07:00,50.4,30.0,30.16,ESE,115,5.0,18.0,45,0.00,,,0.00,weatherlink.com 1.10,2013-03-11 00:07:00,
2013-03-10 20:23:00,50.1,30.0,30.16,SE,128,7.0,12.0,45,0.00,,,0.00,weatherlink.com 1.10,2013-03-11 00:23:00,
2013-03-10 20:39:00,49.9,30.0,30.16,East,93,7.0,14.0,46,0.00,,,0.00,weatherlink.com 1.10,2013-03-11 00:39:00,
2013-03-10 20:55:00,49.6,30.0,30.16,ESE,114,5.0,11.0,46,0.00,,,0.00,weatherlink.com 1.10,2013-03-11 00:55:00,
2013-03-10 21:10:00,49.3,29.0,30.17,East,84,6.0,17.0,46,0.00,,,0.00,weatherlink.com 1.10,2013-03-11 01:10:00,
2013-03-10 21:26:00,49.1,29.0,30.17,SE,124,11.0,17.0,46,0.00,,,0.00,weatherlink.com 1.10,2013-03-11 01:26:00,
2013-03-10 21:42:00,48.8,30.0,30.17,SW,228,4.0,19.0,48,0.00,,,0.00,weatherlink.com 1.10,2013-03-11 01:42:00,
2013-03-10 21:58:00,48.4,30.0,30.16,ESE,104,9.0,12.0,49,0.00,,,0.00,weatherlink.com 1.10,2013-03-11 01:58:00,
2013-03-10 22:14:00,47.9,30.0,30.17,East,94,10.0,15.0,49,0.00,,,0.00,weatherlink.com 1.10,2013-03-11 02:14:00,
2013-03-10 22:29:00,47.6,30.0,30.17,ESE,122,8.0,13.0,50,0.00,,,0.00,weatherlink.com 1.10,2013-03-11 02:29:00,
2013-03-10 22:45:00,47.2,30.0,30.18,ESE,112,5.0,17.0,51,0.00,,,0.00,weatherlink.com 1.10,2013-03-11 02:45:00,
2013-03-10 23:01:00,46.8,31.0,30.18,ESE,117,5.0,12.0,54,0.00,,,0.00,weatherlink.com 1.10,2013-03-11 03:01:00,
2013-03-10 23:17:00,46.4,32.0,30.17,East,98,7.0,11.0,56,0.00,,,0.00,weatherlink.com 1.10,2013-03-11 03:17:00,
2013-03-10 23:34:00,46.0,32.0,30.18,ESE,105,4.0,15.0,58,0.00,,,0.00,weatherlink.com 1.10,2013-03-11 03:34:00,
2013-03-10 23:48:00,45.5,33.0,30.18,East,83,8.0,13.0,61,0.00,,,0.00,weatherlink.com 1.10,2013-03-11 03:48:00,